• en Suisse
  • Liste des pays
  • À 7 jours
  • Température de l'eau
  • Carte satellitaire
  • Carte météo
  • Widgets météo
  • user-avatar
    Se connecter

    Météo par heure à Vatican

    Ce jour, 27 Mai, Dimanche

    Heure Température Précipitation Vent Pression Humidité
    00:00 +23°C° 0 mm 1 m/s 762 mmHg 78%
    01:00 +23°C° 0 mm 1 m/s 762 mmHg 77%
    02:00 +23°C° 0 mm 1 m/s 762 mmHg 78%
    03:00 +22°C° 0 mm 1 m/s 762 mmHg 78%
    04:00 +22°C° 0 mm 1 m/s 762 mmHg 79%
    05:00 +23°C° 0 mm 1 m/s 762 mmHg 76%
    06:00 +24°C° 0 mm 1 m/s 762 mmHg 73%
    07:00 +25°C° 0 mm 1 m/s 762 mmHg 69%
    08:00 +26°C° 0 mm 1 m/s 762 mmHg 65%
    09:00 +28°C° 0 mm 2 m/s 762 mmHg 61%
    10:00 +29°C° 0 mm 2 m/s 762 mmHg 57%
    11:00 +29°C° 0,1 mm 2 m/s 762 mmHg 57%
    12:00 +29°C° 0,1 mm 3 m/s 762 mmHg 57%
    13:00 +29°C° 0,1 mm 3 m/s 762 mmHg 57%
    14:00 +29°C° 0,1 mm 3 m/s 761 mmHg 57%
    15:00 +29°C° 0,1 mm 2 m/s 761 mmHg 57%
    16:00 +29°C° 0,1 mm 2 m/s 761 mmHg 57%
    17:00 +28°C° 0 mm 2 m/s 761 mmHg 60%
    18:00 +27°C° 0 mm 2 m/s 761 mmHg 63%
    19:00 +25°C° 0 mm 2 m/s 761 mmHg 66%
    20:00 +25°C° 0 mm 2 m/s 761 mmHg 69%
    21:00 +24°C° 0 mm 2 m/s 761 mmHg 71%
    22:00 +23°C° 0 mm 1 m/s 762 mmHg 73%
    23:00 +23°C° 0 mm 1 m/s 762 mmHg 74%

    Demain, 28 Mai, Lundi

    Heure Température Précipitation Vent Pression Humidité
    00:00 +23°C° 0 mm 1 m/s 762 mmHg 75%
    01:00 +22°C° 0 mm 1 m/s 762 mmHg 77%
    02:00 +21°C° 0 mm 2 m/s 762 mmHg 77%
    03:00 +21°C° 0 mm 2 m/s 761 mmHg 77%
    04:00 +21°C° 0 mm 2 m/s 761 mmHg 77%
    05:00 +23°C° 0 mm 2 m/s 761 mmHg 75%
    06:00 +24°C° 0 mm 3 m/s 761 mmHg 73%
    07:00 +25°C° 0 mm 3 m/s 761 mmHg 70%
    08:00 +26°C° 0 mm 3 m/s 761 mmHg 64%
    09:00 +27°C° 0 mm 3 m/s 762 mmHg 58%
    10:00 +28°C° 0 mm 3 m/s 762 mmHg 51%
    11:00 +28°C° 0 mm 3 m/s 762 mmHg 52%
    12:00 +28°C° 0 mm 3 m/s 761 mmHg 52%
    13:00 +28°C° 0 mm 3 m/s 761 mmHg 53%
    14:00 +28°C° 0 mm 3 m/s 761 mmHg 52%
    15:00 +28°C° 0 mm 3 m/s 761 mmHg 52%
    16:00 +29°C° 0 mm 2 m/s 761 mmHg 51%
    17:00 +28°C° 0 mm 2 m/s 761 mmHg 56%
    18:00 +27°C° 0 mm 1 m/s 760 mmHg 60%
    19:00 +25°C° 0 mm 1 m/s 760 mmHg 64%
    20:00 +25°C° 0 mm 1 m/s 760 mmHg 66%
    21:00 +24°C° 0 mm 1 m/s 761 mmHg 67%
    22:00 +24°C° 0 mm 1 m/s 761 mmHg 68%
    23:00 +23°C° 0 mm 1 m/s 761 mmHg 69%

    Après-demain, 29 Mai, Mardi

    Heure Température Précipitation Vent Pression Humidité
    00:00 +23°C° 0 mm 2 m/s 761 mmHg 69%
    01:00 +23°C° 0 mm 2 m/s 760 mmHg 70%
    02:00 +23°C° 0 mm 2 m/s 760 mmHg 71%
    03:00 +23°C° 0 mm 1 m/s 760 mmHg 72%
    04:00 +22°C° 0 mm 1 m/s 760 mmHg 74%
    05:00 +23°C° 0 mm 1 m/s 760 mmHg 70%
    06:00 +24°C° 0 mm 1 m/s 760 mmHg 67%
    07:00 +25°C° 0 mm 1 m/s 760 mmHg 64%
    08:00 +27°C° 0 mm 2 m/s 760 mmHg 58%
    09:00 +28°C° 0 mm 2 m/s 760 mmHg 53%
    10:00 +29°C° 0 mm 2 m/s 759 mmHg 47%
    11:00 +30°C° 0 mm 2 m/s 759 mmHg 46%
    12:00 +30°C° 0 mm 2 m/s 759 mmHg 45%
    13:00 +31°C° 0 mm 3 m/s 759 mmHg 43%
    14:00 +31°C° 0 mm 2 m/s 758 mmHg 44%
    15:00 +31°C° 0 mm 2 m/s 758 mmHg 45%
    16:00 +30°C° 0 mm 2 m/s 758 mmHg 46%
    17:00 +29°C° 0 mm 1 m/s 758 mmHg 51%
    18:00 +28°C° 0 mm 1 m/s 757 mmHg 56%
    19:00 +26°C° 0 mm 1 m/s 757 mmHg 61%
    20:00 +26°C° 0 mm 1 m/s 757 mmHg 60%
    21:00 +26°C° 0 mm 1 m/s 758 mmHg 60%
    22:00 +25°C° 0 mm 1 m/s 758 mmHg 60%
    23:00 +25°C° 0 mm 1 m/s 758 mmHg 63%

    30 Mai, Mercredi

    Heure Température Précipitation Vent Pression Humidité
    00:00 +22°C° 0 mm 0 m/s 758 mmHg 65%
    01:00 +22°C° 0 mm 0 m/s 757 mmHg 67%
    02:00 +23°C° 0 mm 1 m/s 757 mmHg 68%
    03:00 +23°C° 0 mm 1 m/s 757 mmHg 69%
    04:00 +22°C° 0 mm 1 m/s 757 mmHg 69%
    05:00 +23°C° 0 mm 1 m/s 757 mmHg 67%
    06:00 +24°C° 0 mm 1 m/s 757 mmHg 64%
    07:00 +25°C° 0 mm 2 m/s 757 mmHg 62%
    08:00 +27°C° 0 mm 2 m/s 757 mmHg 57%
    09:00 +28°C° 0 mm 2 m/s 757 mmHg 53%
    10:00 +29°C° 0 mm 3 m/s 757 mmHg 48%
    11:00 +29°C° 0 mm 3 m/s 757 mmHg 48%
    12:00 +29°C° 0 mm 3 m/s 757 mmHg 48%
    13:00 +30°C° 0 mm 3 m/s 757 mmHg 48%
    14:00 +29°C° 0 mm 3 m/s 757 mmHg 51%
    15:00 +29°C° 0 mm 3 m/s 757 mmHg 54%
    16:00 +28°C° 0 mm 3 m/s 757 mmHg 57%
    17:00 +27°C° 0 mm 2 m/s 757 mmHg 62%
    18:00 +26°C° 0 mm 2 m/s 757 mmHg 67%
    19:00 +25°C° 0 mm 1 m/s 757 mmHg 72%
    20:00 +24°C° 0 mm 1 m/s 758 mmHg 75%
    21:00 +23°C° 0 mm 1 m/s 758 mmHg 79%
    22:00 +22°C° 0 mm 1 m/s 758 mmHg 83%
    23:00 +22°C° 0 mm 1 m/s 758 mmHg 82%

    31 Mai, Jeudi

    Heure Température Précipitation Vent Pression Humidité
    00:00 +22°C° 0 mm 1 m/s 758 mmHg 82%
    01:00 +20°C° 0 mm 0 m/s 758 mmHg 82%
    02:00 +21°C° 0 mm 1 m/s 758 mmHg 82%
    03:00 +21°C° 0 mm 1 m/s 758 mmHg 83%
    04:00 +21°C° 0 mm 1 m/s 758 mmHg 83%
    05:00 +22°C° 0 mm 1 m/s 758 mmHg 79%
    06:00 +23°C° 0 mm 2 m/s 758 mmHg 74%
    07:00 +24°C° 0 mm 2 m/s 758 mmHg 70%
    08:00 +26°C° 0 mm 1 m/s 759 mmHg 63%
    09:00 +27°C° 0 mm 1 m/s 759 mmHg 57%
    10:00 +29°C° 0 mm 1 m/s 759 mmHg 51%
    11:00 +29°C° 0 mm 2 m/s 759 mmHg 50%
    12:00 +30°C° 0 mm 2 m/s 759 mmHg 49%
    13:00 +30°C° 0 mm 3 m/s 759 mmHg 49%
    14:00 +29°C° 0 mm 3 m/s 758 mmHg 50%
    15:00 +29°C° 0 mm 4 m/s 758 mmHg 52%
    16:00 +29°C° 0 mm 4 m/s 758 mmHg 53%
    17:00 +27°C° 0 mm 4 m/s 758 mmHg 57%
    18:00 +26°C° 0 mm 3 m/s 758 mmHg 62%
    19:00 +25°C° 0 mm 3 m/s 758 mmHg 66%
    20:00 +24°C° 0 mm 3 m/s 758 mmHg 68%
    21:00 +22°C° 0 mm 3 m/s 759 mmHg 70%
    22:00 +22°C° 0 mm 3 m/s 759 mmHg 73%
    23:00 +21°C° 0 mm 3 m/s 759 mmHg 73%

    1 Juin, Vendredi

    Heure Température Précipitation Vent Pression Humidité
    00:00 +21°C° 0 mm 3 m/s 759 mmHg 74%
    01:00 +21°C° 0 mm 3 m/s 759 mmHg 74%
    02:00 +21°C° 0 mm 2 m/s 759 mmHg 73%
    03:00 +21°C° 0 mm 2 m/s 759 mmHg 73%
    04:00 +20°C° 0 mm 2 m/s 759 mmHg 73%
    05:00 +21°C° 0 mm 2 m/s 759 mmHg 70%
    06:00 +23°C° 0 mm 2 m/s 759 mmHg 67%
    07:00 +24°C° 0 mm 2 m/s 759 mmHg 64%
    08:00 +25°C° 0 mm 3 m/s 759 mmHg 61%
    09:00 +26°C° 0 mm 3 m/s 759 mmHg 57%
    10:00 +27°C° 0 mm 3 m/s 759 mmHg 53%
    11:00 +27°C° 0 mm 3 m/s 759 mmHg 52%
    12:00 +28°C° 0 mm 4 m/s 758 mmHg 51%
    13:00 +28°C° 0 mm 4 m/s 758 mmHg 50%
    14:00 +28°C° 0 mm 5 m/s 758 mmHg 52%
    15:00 +27°C° 0 mm 5 m/s 758 mmHg 53%
    16:00 +27°C° 0 mm 5 m/s 758 mmHg 54%
    17:00 +26°C° 0 mm 5 m/s 758 mmHg 59%
    18:00 +25°C° 0 mm 4 m/s 758 mmHg 64%
    19:00 +23°C° 0 mm 4 m/s 758 mmHg 68%
    20:00 +22°C° 0 mm 4 m/s 758 mmHg 71%
    21:00 +22°C° 0 mm 4 m/s 758 mmHg 74%
    22:00 +21°C° 0 mm 4 m/s 758 mmHg 77%
    23:00 +21°C° 0 mm 4 m/s 758 mmHg 79%
    Voir plus